This demonstration page uses our WeatherBlox Daily Observations layout. Learn more.

Left ArrowRight Arrow

30.21309, -93.2044

Hourly Observations for October 9, 2015

Temp ( °F °C ) Dew Point ( °F °C ) Humidity (%) Winds ( mph kmh ) Pressure ( in mb ) Visibility ( mi km ) Precip ( " mm )
12:15 am 00:15 Clear 73 22.6 70 21.1 91 91 Calm 30.03 1017 10 16 0.00 0.00
12:35 am 00:35 Clear 71 21.8 70 21 95 95 SE 3 6 30.03 1017 10 16 0.00 0.00
12:55 am 00:55 Clear 71 21.5 70 20.9 96 96 SSE 3 6 30.03 1017 10 16 0.00 0.00
1:15 am 01:15 Clear 71 21.4 70 21.1 98 98 Calm 30.03 1017 10 16 0.00 0.00
1:35 am 01:35 Clear 71 21.5 70 21 97 97 Calm 30.03 1017 10 16 0.00 0.00
1:55 am 01:55 Clear with Mist and Fog 69 20.8 69 20.6 99 99 Calm 30.03 1017 3 5 0.00 0.00
2:15 am 02:15 Clear 70 21.1 69 20.8 98 98 Calm 30.03 1017 7 11 0.00 0.00
2:35 am 02:35 Clear with Mist and Fog 70 21.3 70 21 98 98 Calm 30.03 1017 5 8 0.00 0.00
2:55 am 02:55 Clear 70 21.3 70 21 98 98 Calm 30.03 1017 7 11 0.00 0.00
3:15 am 03:15 Clear 69 20.8 69 20.4 98 98 Calm 30.03 1017 7 11 0.00 0.00
3:35 am 03:35 Clear 70 21 69 20.6 98 98 Calm 30.03 1017 10 16 0.00 0.00
3:55 am 03:55 Clear 70 21 69 20.8 99 99 Calm 30.03 1017 10 16 0.00 0.00
4:15 am 04:15 Clear 70 21 69 20.5 97 97 Calm 30.03 1017 10 16 0.00 0.00
4:35 am 04:35 Clear 69 20.6 69 20.3 98 98 Calm 30.03 1017 10 16 0.00 0.00
4:55 am 04:55 Clear 69 20.5 68 20.1 98 98 Calm 30.03 1017 10 16 0.00 0.00
5:15 am 05:15 Clear 70 21 69 20.5 97 97 Calm 30.03 1017 7 11 0.00 0.00
6:00 am 06:00 Mostly Clear 70 21 68 20 94 94 Calm 30.03 1017 10 16 0.00 0.00
6:55 am 06:55 Mostly Cloudy 70 21 68 20 94 94 Calm 30.06 1018 10 16 0.00 0.00
7:47 am 07:47 Mostly Cloudy with Mist and Fog 70 21 70 21 100 100 Calm 30.09 1019 6 10 0.00 0.00
8:55 am 08:55 Mostly Cloudy 73 23 72 22 94 94 Calm 30.09 1019 10 16 0.00 0.00
9:50 am 09:50 Mostly Cloudy 75 24 72 22 89 89 NNE 3 6 30.12 1020 10 16 0.00 0.00
10:50 am 10:50 Partly Cloudy 81 27 72 22 74 74 Calm 30.12 1020 10 16 0.00 0.00
11:50 am 11:50 Partly Cloudy 81 27 70 21 70 70 Calm 30.09 1019 10 16 0.00 0.00
12:50 pm 12:50 Partly Cloudy 82 28 68 20 62 62 Calm 30.09 1019 10 16 0.00 0.00
1:50 pm 13:50 Partly Cloudy 88 31 68 20 52 52 Calm 30.06 1018 10 16 0.00 0.00
5:50 pm 17:50 Partly Cloudy 84 29 70 21 62 62 Calm 30.00 1016 10 16 0.00 0.00
6:50 pm 18:50 Partly Cloudy 81 27 70 21 70 70 SSW 6 9 30.00 1016 10 16 0.00 0.00
7:50 pm 19:50 Mostly Clear 79 26 72 22 79 79 SSW 7 11 30.03 1017 10 16 0.00 0.00
8:50 pm 20:50 Mostly Clear 77 25 72 22 83 83 SW 8 13 30.06 1018 10 16 0.00 0.00
9:50 pm 21:50 Mostly Clear 75 24 72 22 89 89 Calm 30.06 1018 10 16 0.00 0.00
10:15 pm 22:15 Clear 77 25 70 21.3 80 80 WSW 6 9 30.06 1018 10 16 0.00 0.00
10:35 pm 22:35 Clear 76 24.6 71 21.4 82 82 SW 5 7 30.06 1018 10 16 0.00 0.00
10:55 pm 22:55 Clear 76 24.5 70 21.2 82 82 WSW 6 9 30.06 1018 10 16 0.00 0.00
11:15 pm 23:15 Clear 76 24.6 70 20.9 80 80 WSW 7 11 30.06 1018 10 16 0.00 0.00
11:35 pm 23:35 Clear 76 24.6 69 20.8 79 79 WSW 6 9 30.06 1018 10 16 0.00 0.00
11:55 pm 23:55 Clear 76 24.3 70 20.9 81 81 WSW 6 9 30.06 1018 10 16 0.00 0.00

Powered by AerisWeather